Location: Burla
(50.9568°N, 10.4983°E)
Time: 15:39:28
(UTC+00:00)

Meteor 1-16 Rocket - Pass Details

Date: 18 January 2026
Orbit: 789 x 905 km, 81.2° (Epoch: 9 February)

Event Time Altitude Azimuth Distance (km) Brightness Sun altitude
Rises 06:13:00 0° 185° (S) 3,357 7.5 -9.1°
Reaches altitude 10° 06:15:25 10° 184° (S) 2,412 6.8 -8.7°
Maximum altitude 06:20:50 76° 100° (E) 835 4.4 -8.0°
Drops below altitude 10° 06:26:10 10° 15° (NNE) 2,375 6.5 -7.2°
Sets 06:28:32 0° 14° (NNE) 3,303 7.2 -6.8°
